Location: Pine Mountain Observatory
(43.7910°N, 120.9377°W)
Time: 18:40:44
(UTC-07:00)

Vanguard 1 Rocket - Pass Details

Date: 27 May 2019
Orbit: 652 x 4224 km, 34.3° (Epoch: 17 June)

Event Time Altitude Azimuth Distance (km) Brightness Sun altitude
Exits shadow 01:28:54 11° 113° (ESE) 2,454 9.4 -24.6°
Drops below altitude 10° 01:29:18 10° 110° (ESE) 2,579 9.6 -24.6°
Sets 01:33:13 0° 94° (E) 3,978 10.7 -24.5°
